Milwaukee, WI

9:08 AM CST on December 07, 2016 (GMT -0600)
Gen Mitchell International

Weather History for KMKE - March, 2013

Change the Weather History Date:

Sunday, March 17, 2013

  Actual Average Record
Temperature  
Mean Temperature 26 °F 35 °F  
Max Temperature 30 °F 43 °F 75 °F (2009)
Min Temperature 22 °F 28 °F -7 °F (1941)
Degree Days  
Heating Degree Days 39 30  
Month to date heating degree days 612 550  
Since 1 July heating degree days 5337 5530  
Cooling Degree Days 0 0  
Month to date cooling degree days 0 0  
Year to date cooling degree days 0 0  
Moisture  
Dew Point 17 °F    
Average Humidity 66    
Maximum Humidity 75    
Minimum Humidity 57    
Precipitation  
Precipitation 0.00 in 0.07 in 0.99 in (1934)
Month to date precipitation 1.44 1.11  
Year to date precipitation 7.64 4.52  
Snow  
Snow 0.00 in 0.20 in 9.00 in (1904)
Month to date snowfall 6.2 4.9  
Since 1 July snowfall 43.4 42.7  
Snow Depth 2.00 in    
Sea Level Pressure  
Sea Level Pressure 30.19 in    
Wind  
Wind Speed 13 mph (ENE)    
Max Wind Speed 22 mph    
Max Gust Speed 26 mph    
Visibility 10 miles    
Events      
T = Trace of Precipitation, MM = Missing Value Source: NWS Daily Summary

Daily Weather History Graph

Daily Weather History Graph

Search for Another Location

Airport or City:

Trip Planner

Search our weather history database for the weather conditions in past years. The results will help you decide how hot, cold, wet, or windy it might be!

Date:

Astronomy

Mar. 17, 2013 Rise Set
Actual Time 6:59 AM CDT 7:00 PM CDT
Civil Twilight 6:31 AM CDT 7:28 PM CDT
Nautical Twilight 5:58 AM CDT 8:02 PM CDT
Astronomical Twilight 5:24 AM CDT 8:35 PM CDT
Moon 10:03 AM CDT (3/17) 12:16 AM CDT (3/17)
Length of Visible Light 12h 57m
Length of Day
12h 01m
Waxing Crescent, 31% of the Moon is Illuminated
Mar 17
Waxing Crescent
Mar 19
First Quarter
Mar 27
Full
Apr 2
Last Quarter
Apr 10
New

Hourly Weather History & Observations

Time (CDT) Temp. Windchill Dew Point Humidity Pressure Visibility Wind Dir Wind Speed Gust Speed Precip Events Conditions
12:52 AM 28.0 °F 18.1 °F 16.0 °F 61% 30.17 in 10.0 mi WNW 11.5 mph - N/A   Overcast
1:52 AM 26.1 °F 16.8 °F 14.0 °F 60% 30.17 in 10.0 mi NW 9.2 mph - N/A   Scattered Clouds
2:52 AM 25.0 °F 15.5 °F 12.9 °F 60% 30.18 in 10.0 mi NNW 9.2 mph - N/A   Partly Cloudy
3:52 AM 24.1 °F 15.2 °F 12.9 °F 62% 30.18 in 10.0 mi NNW 8.1 mph - N/A   Scattered Clouds
4:52 AM 21.9 °F 8.2 °F 12.0 °F 66% 30.18 in 10.0 mi North 16.1 mph 21.9 mph N/A   Scattered Clouds
5:52 AM 23.0 °F 10.6 °F 14.0 °F 68% 30.20 in 10.0 mi North 13.8 mph - N/A   Scattered Clouds
6:39 AM 23.0 °F 13.1 °F 15.8 °F 74% 30.18 in 10.0 mi North 9.2 mph - N/A   Mostly Cloudy
6:52 AM 24.1 °F 13.7 °F 15.1 °F 69% 30.22 in 10.0 mi NE 10.4 mph 16.1 mph N/A   Mostly Cloudy
7:15 AM 24.8 °F 13.4 °F 15.8 °F 69% 30.20 in 10.0 mi NNE 12.7 mph - N/A   Mostly Cloudy
7:52 AM 26.1 °F 15.6 °F 16.0 °F 66% 30.25 in 10.0 mi ENE 11.5 mph 19.6 mph N/A   Mostly Cloudy
8:52 AM 26.1 °F 14.5 °F 16.0 °F 66% 30.26 in 10.0 mi NE 13.8 mph 20.7 mph N/A   Overcast
9:52 AM 28.0 °F 17.0 °F 16.0 °F 61% 30.27 in 10.0 mi ENE 13.8 mph - N/A   Mostly Cloudy
10:52 AM 26.6 °F 13.8 °F 17.6 °F 69% 30.24 in 10.0 mi East 17.3 mph - N/A   Overcast
11:52 AM 28.0 °F 18.1 °F 17.1 °F 63% 30.28 in 10.0 mi ENE 11.5 mph - N/A   Mostly Cloudy
12:52 PM 28.0 °F 17.0 °F 17.1 °F 63% 30.27 in 10.0 mi ENE 13.8 mph - N/A   Mostly Cloudy
1:52 PM 28.0 °F 18.1 °F 17.1 °F 63% 30.25 in 10.0 mi East 11.5 mph - N/A   Mostly Cloudy
2:24 PM 26.6 °F 16.8 °F 17.6 °F 69% 30.19 in 10.0 mi East 10.4 mph - N/A   Mostly Cloudy
2:52 PM 28.0 °F 18.6 °F 18.0 °F 66% 30.21 in 10.0 mi ENE 10.4 mph 18.4 mph N/A   Mostly Cloudy
3:52 PM 28.0 °F 16.5 °F 18.0 °F 66% 30.20 in 10.0 mi East 15.0 mph - N/A   Mostly Cloudy
4:52 PM 28.0 °F 17.5 °F 18.0 °F 66% 30.19 in 10.0 mi East 12.7 mph - N/A   Mostly Cloudy
5:08 PM 28.4 °F 19.7 °F 17.6 °F 64% 30.16 in 10.0 mi East 9.2 mph - N/A   Mostly Cloudy
5:52 PM 28.9 °F 19.2 °F 18.0 °F 64% 30.17 in 10.0 mi ENE 11.5 mph - N/A   Mostly Cloudy
6:52 PM 28.0 °F 18.1 °F 18.0 °F 66% 30.17 in 10.0 mi East 11.5 mph - N/A   Mostly Cloudy
7:52 PM 28.9 °F 17.3 °F 19.9 °F 69% 30.15 in 10.0 mi East 16.1 mph - N/A   Scattered Clouds
8:52 PM 28.9 °F 18.6 °F 21.9 °F 75% 30.14 in 10.0 mi East 12.7 mph - N/A   Scattered Clouds
9:52 PM 30.0 °F 19.1 °F 21.0 °F 69% 30.11 in 10.0 mi East 15.0 mph - N/A   Scattered Clouds
10:52 PM 30.0 °F 17.9 °F 21.9 °F 72% 30.09 in 10.0 mi ESE 18.4 mph - N/A   Mostly Cloudy
11:52 PM 30.0 °F 17.9 °F 23.0 °F 75% 30.06 in 10.0 mi ESE 18.4 mph - N/A   Mostly Cloudy